AAL2507 KPBI-KDFW

Flight info

Callsign AAL2507
Flight time 2h 28m
Altitude 34000
Route OLAKE3 JAYMC Y280 REDFN Q105 HRV J58 AEX PNUTS BEREE3
Aircraft B38M/M-SDE1FGHILORVWXY/HB1

Departure

Time 2026-04-12 07:47
Airport Palm Beach International Airport (KPBI)

Arrival

Time 2026-04-12 10:16
Airport Dallas Fort Worth International Airport (KDFW)
Time Latitude Longitude Altitude Speed Heading
2026-04-12 07:21 26.68719 -80.09203 24 ft 0 kts 317°
2026-04-12 07:36 26.68713 -80.09197 24 ft 4 kts 315°
2026-04-12 07:36 26.68696 -80.09174 27 ft 4 kts 302°
2026-04-12 07:37 26.68685 -80.09148 28 ft 4 kts 283°
2026-04-12 07:37 26.68684 -80.09119 30 ft 4 kts 255°
2026-04-12 07:37 26.68692 -80.09099 26 ft 0 kts 230°
2026-04-12 07:40 26.68684 -80.09110 27 ft 3 kts 229°
2026-04-12 07:40 26.68679 -80.09117 25 ft 0 kts 227°
2026-04-12 07:41 26.68673 -80.09124 25 ft 3 kts 227°
2026-04-12 07:41 26.68644 -80.09159 28 ft 8 kts 227°
2026-04-12 07:41 26.68598 -80.09217 25 ft 11 kts 227°
2026-04-12 07:42 26.68541 -80.09286 27 ft 13 kts 227°
2026-04-12 07:42 26.68478 -80.09363 24 ft 9 kts 227°
2026-04-12 07:42 26.68418 -80.09379 26 ft 10 kts 161°
2026-04-12 07:43 26.68375 -80.09538 24 ft 11 kts 273°
2026-04-12 07:43 26.68379 -80.09631 25 ft 13 kts 273°
2026-04-12 07:43 26.68384 -80.09739 24 ft 15 kts 273°
2026-04-12 07:44 26.68389 -80.09860 24 ft 17 kts 272°
2026-04-12 07:44 26.68396 -80.09996 24 ft 18 kts 273°
2026-04-12 07:44 26.68399 -80.10096 24 ft 20 kts 272°
2026-04-12 07:44 26.68406 -80.10255 26 ft 21 kts 273°
2026-04-12 07:45 26.68414 -80.10427 24 ft 23 kts 273°
2026-04-12 07:45 26.68422 -80.10612 24 ft 24 kts 273°
2026-04-12 07:45 26.68428 -80.10755 24 ft 14 kts 272°
2026-04-12 07:45 26.68413 -80.10815 25 ft 9 kts 212°
2026-04-12 07:46 26.68348 -80.10823 28 ft 10 kts 171°
2026-04-12 07:46 26.68318 -80.10756 26 ft 11 kts 92°
2026-04-12 07:46 26.68309 -80.10558 24 ft 57 kts 93°
2026-04-12 07:46 26.68279 -80.09856 24 ft 124 kts 92°
2026-04-12 07:47 26.68225 -80.08684 178 ft 167 kts 90°
2026-04-12 07:47 26.68183 -80.07338 866 ft 179 kts 90°
2026-04-12 07:47 26.68227 -80.05967 1789 ft 177 kts 78°
2026-04-12 07:47 26.68708 -80.04585 2201 ft 205 kts 65°
2026-04-12 07:48 26.69330 -80.03108 3008 ft 213 kts 65°
2026-04-12 07:48 26.69982 -80.01575 3787 ft 226 kts 64°
2026-04-12 07:48 26.70682 -79.99969 4652 ft 232 kts 64°
2026-04-12 07:48 26.71586 -79.98425 5433 ft 243 kts 44°
2026-04-12 07:49 26.73079 -79.97457 6246 ft 257 kts 21°
2026-04-12 07:49 26.74826 -79.96991 7195 ft 260 kts 14°
2026-04-12 07:49 26.76675 -79.96735 7897 ft 274 kts
2026-04-12 07:49 26.78510 -79.97356 8825 ft 288 kts 332°
2026-04-12 07:50 26.79902 -79.99026 9692 ft 299 kts 301°
2026-04-12 07:50 26.80730 -80.01205 10413 ft 314 kts 293°
2026-04-12 07:50 26.81480 -80.03573 10901 ft 329 kts 292°
2026-04-12 07:50 26.82177 -80.06030 11668 ft 333 kts 289°
2026-04-12 07:51 26.82846 -80.08511 12442 ft 338 kts 290°
2026-04-12 07:51 26.83604 -80.11074 12834 ft 356 kts 292°
2026-04-12 07:51 26.84425 -80.13761 13161 ft 373 kts 292°
2026-04-12 07:51 26.85284 -80.16559 13634 ft 383 kts 291°
2026-04-12 07:52 26.86150 -80.19369 14488 ft 381 kts 290°
2026-04-12 07:52 26.87015 -80.22175 15150 ft 384 kts 290°
2026-04-12 07:52 26.87889 -80.25014 15800 ft 386 kts 290°
2026-04-12 07:52 26.88767 -80.27868 16452 ft 389 kts 290°
2026-04-12 07:53 26.89652 -80.30747 17068 ft 392 kts 290°
2026-04-12 07:53 26.90543 -80.33644 17689 ft 395 kts 290°
2026-04-12 07:53 26.91377 -80.36587 18267 ft 399 kts 283°
2026-04-12 07:53 26.91748 -80.39673 18832 ft 402 kts 278°
2026-04-12 07:54 26.92100 -80.42799 19312 ft 406 kts 279°
2026-04-12 07:54 26.92446 -80.45946 19824 ft 408 kts 279°
2026-04-12 07:54 26.92790 -80.49111 20322 ft 411 kts 279°
2026-04-12 07:54 26.93135 -80.52306 20823 ft 414 kts 279°
2026-04-12 07:55 26.93482 -80.55531 21309 ft 418 kts 279°
2026-04-12 07:55 26.93829 -80.58770 21782 ft 421 kts 279°
2026-04-12 07:55 26.94175 -80.61998 22273 ft 424 kts 280°
2026-04-12 07:55 26.94527 -80.65294 22746 ft 427 kts 280°
2026-04-12 07:56 26.94885 -80.68656 23223 ft 430 kts 280°
2026-04-12 07:56 26.95235 -80.71949 23690 ft 433 kts 280°
2026-04-12 07:56 26.95592 -80.75315 24101 ft 436 kts 280°
2026-04-12 07:56 26.95830 -80.78717 24528 ft 440 kts 275°
2026-04-12 07:57 26.95939 -80.82146 24970 ft 441 kts 276°
2026-04-12 07:57 26.96066 -80.85587 25385 ft 443 kts 276°
2026-04-12 07:57 26.96204 -80.89041 25796 ft 444 kts 276°
2026-04-12 07:57 26.96344 -80.92501 26194 ft 446 kts 276°
2026-04-12 07:58 26.96486 -80.95981 26607 ft 447 kts 276°
2026-04-12 07:58 26.96627 -80.99472 26988 ft 449 kts 276°
2026-04-12 07:58 26.96769 -81.02979 27371 ft 451 kts 276°
2026-04-12 07:58 26.96910 -81.06493 27751 ft 453 kts 276°
2026-04-12 07:59 26.97050 -81.10023 28126 ft 454 kts 276°
2026-04-12 07:59 26.97191 -81.13570 28485 ft 456 kts 276°
2026-04-12 07:59 26.97331 -81.17131 28849 ft 458 kts 276°
2026-04-12 07:59 26.97471 -81.20708 29207 ft 460 kts 276°
2026-04-12 08:00 26.97610 -81.24293 29556 ft 462 kts 276°
2026-04-12 08:00 26.97749 -81.27899 29900 ft 464 kts 276°
2026-04-12 08:00 26.97888 -81.31511 30338 ft 463 kts 276°
2026-04-12 08:00 26.98185 -81.35071 30737 ft 456 kts 286°
2026-04-12 08:01 26.99241 -81.38368 31187 ft 446 kts 301°
2026-04-12 08:01 27.00781 -81.41365 31582 ft 443 kts 303°
2026-04-12 08:01 27.02370 -81.44324 31979 ft 442 kts 304°
2026-04-12 08:01 27.03981 -81.47252 32389 ft 440 kts 304°
2026-04-12 08:02 27.05602 -81.50157 32807 ft 438 kts 304°
2026-04-12 08:02 27.07223 -81.53042 33224 ft 437 kts 304°
2026-04-12 08:02 27.08842 -81.55916 33639 ft 435 kts 304°
2026-04-12 08:02 27.10456 -81.58778 34059 ft 433 kts 304°
2026-04-12 08:03 27.12063 -81.61629 34275 ft 433 kts 304°
2026-04-12 08:03 27.13669 -81.64479 34266 ft 429 kts 304°
2026-04-12 08:03 27.16853 -81.70137 34270 ft 430 kts 304°
2026-04-12 08:04 27.20047 -81.75820 34269 ft 430 kts 304°
2026-04-12 08:04 27.23214 -81.81463 34275 ft 430 kts 304°
2026-04-12 08:05 27.26397 -81.87139 34280 ft 429 kts 304°
2026-04-12 08:05 27.28873 -81.93222 34282 ft 435 kts 285°
2026-04-12 08:06 27.30201 -81.99883 34273 ft 437 kts 286°
2026-04-12 08:06 27.31480 -82.06569 34278 ft 437 kts 285°
2026-04-12 08:07 27.32732 -82.13260 34274 ft 437 kts 285°
2026-04-12 08:07 27.33979 -82.19955 34273 ft 437 kts 285°
2026-04-12 08:08 27.35224 -82.26656 34270 ft 438 kts 285°
2026-04-12 08:08 27.36466 -82.33357 34268 ft 438 kts 285°
2026-04-12 08:09 27.37703 -82.40056 34263 ft 438 kts 285°
2026-04-12 08:09 27.38939 -82.46766 34264 ft 438 kts 285°
2026-04-12 08:10 27.40174 -82.53485 34272 ft 438 kts 285°
2026-04-12 08:10 27.41427 -82.60201 34264 ft 438 kts 285°
2026-04-12 08:11 27.42680 -82.66910 34265 ft 438 kts 285°
2026-04-12 08:11 27.43932 -82.73628 34260 ft 438 kts 285°
2026-04-12 08:12 27.45180 -82.80347 34244 ft 438 kts 285°
2026-04-12 08:12 27.46424 -82.87059 34258 ft 438 kts 285°
2026-04-12 08:13 27.47665 -82.93779 34253 ft 438 kts 285°
2026-04-12 08:13 27.48903 -83.00497 34256 ft 438 kts 285°
2026-04-12 08:14 27.50139 -83.07226 34266 ft 435 kts 285°
2026-04-12 08:14 27.51375 -83.13975 34245 ft 445 kts 284°
2026-04-12 08:15 27.52633 -83.20860 34252 ft 452 kts 284°
2026-04-12 08:15 27.53902 -83.27824 34255 ft 456 kts 284°
2026-04-12 08:16 27.55177 -83.34843 34253 ft 458 kts 284°
2026-04-12 08:16 27.56453 -83.41890 34256 ft 460 kts 284°
2026-04-12 08:17 27.57730 -83.48965 34240 ft 461 kts 284°
2026-04-12 08:17 27.59005 -83.56047 34242 ft 461 kts 284°
2026-04-12 08:18 27.60277 -83.63133 34247 ft 459 kts 284°
2026-04-12 08:18 27.60894 -83.66578 34254 ft 441 kts 284°
2026-04-12 08:18 27.61497 -83.69952 34256 ft 437 kts 284°
2026-04-12 08:19 27.62693 -83.76656 34248 ft 436 kts 284°
2026-04-12 08:19 27.63887 -83.83370 34247 ft 437 kts 284°
2026-04-12 08:20 27.65078 -83.90088 34255 ft 437 kts 284°
2026-04-12 08:20 27.66264 -83.96791 34250 ft 434 kts 284°
2026-04-12 08:21 27.67439 -84.03455 34249 ft 433 kts 284°
2026-04-12 08:21 27.68611 -84.10125 34250 ft 434 kts 284°
2026-04-12 08:22 27.69781 -84.16802 34245 ft 434 kts 284°
2026-04-12 08:22 27.70948 -84.23479 34246 ft 434 kts 284°
2026-04-12 08:23 27.72111 -84.30150 34237 ft 433 kts 285°
2026-04-12 08:23 27.73264 -84.36786 34243 ft 429 kts 285°
2026-04-12 08:24 27.74411 -84.43407 34247 ft 430 kts 285°
2026-04-12 08:24 27.75555 -84.50034 34246 ft 430 kts 285°
2026-04-12 08:25 27.76697 -84.56664 34246 ft 430 kts 285°
2026-04-12 08:25 27.77835 -84.63294 34246 ft 430 kts 285°
2026-04-12 08:26 27.78970 -84.69921 34231 ft 430 kts 285°
2026-04-12 08:26 27.80104 -84.76559 34237 ft 430 kts 285°
2026-04-12 08:27 27.81234 -84.83198 34245 ft 430 kts 285°
2026-04-12 08:27 27.82359 -84.89832 34244 ft 430 kts 285°
2026-04-12 08:28 27.83294 -84.95356 34241 ft 430 kts 285°
2026-04-12 08:28 27.84424 -85.02044 34232 ft 430 kts 285°
2026-04-12 08:29 27.85534 -85.08637 34225 ft 430 kts 285°
2026-04-12 08:29 27.86648 -85.15277 34240 ft 430 kts 285°
2026-04-12 08:30 27.87759 -85.21914 34237 ft 430 kts 285°
2026-04-12 08:30 27.89219 -85.28405 34254 ft 424 kts 292°
2026-04-12 08:31 27.91124 -85.34737 34232 ft 425 kts 292°
2026-04-12 08:31 27.93036 -85.41061 34238 ft 425 kts 292°
2026-04-12 08:32 27.94947 -85.47384 34240 ft 424 kts 293°
2026-04-12 08:32 27.96852 -85.53699 34238 ft 424 kts 293°
2026-04-12 08:33 27.98754 -85.60017 34239 ft 424 kts 292°
2026-04-12 08:33 28.00653 -85.66337 34232 ft 426 kts 292°
2026-04-12 08:34 28.02560 -85.72692 34235 ft 427 kts 292°
2026-04-12 08:34 28.04465 -85.79056 34238 ft 427 kts 292°
2026-04-12 08:35 28.06368 -85.85423 34242 ft 427 kts 292°
2026-04-12 08:35 28.08266 -85.91786 34226 ft 427 kts 292°
2026-04-12 08:36 28.10163 -85.98158 34238 ft 427 kts 292°
2026-04-12 08:36 28.12057 -86.04533 34237 ft 427 kts 292°
2026-04-12 08:37 28.13948 -86.10910 34237 ft 427 kts 292°
2026-04-12 08:37 28.15834 -86.17282 34237 ft 427 kts 292°
2026-04-12 08:38 28.17719 -86.23660 34238 ft 426 kts 292°
2026-04-12 08:38 28.19597 -86.30030 34238 ft 426 kts 292°
2026-04-12 08:39 28.21474 -86.36407 34238 ft 426 kts 292°
2026-04-12 08:39 28.23346 -86.42782 34238 ft 426 kts 292°
2026-04-12 08:40 28.25217 -86.49164 34236 ft 426 kts 292°
2026-04-12 08:40 28.27085 -86.55546 34237 ft 426 kts 292°
2026-04-12 08:41 28.28946 -86.61916 34236 ft 424 kts 292°
2026-04-12 08:41 28.30795 -86.68255 34235 ft 423 kts 291°
2026-04-12 08:42 28.32653 -86.74601 34238 ft 424 kts 292°
2026-04-12 08:42 28.34516 -86.80958 34240 ft 426 kts 292°
2026-04-12 08:43 28.36383 -86.87346 34235 ft 426 kts 292°
2026-04-12 08:43 28.38245 -86.93728 34235 ft 426 kts 292°
2026-04-12 08:44 28.40105 -87.00115 34233 ft 425 kts 291°
2026-04-12 08:44 28.41959 -87.06493 34235 ft 425 kts 291°
2026-04-12 08:45 28.43810 -87.12875 34235 ft 425 kts 291°
2026-04-12 08:45 28.45656 -87.19248 34236 ft 425 kts 291°
2026-04-12 08:46 28.47501 -87.25633 34233 ft 425 kts 291°
2026-04-12 08:47 28.50263 -87.35219 34218 ft 426 kts 291°
2026-04-12 08:47 28.52113 -87.41651 34231 ft 428 kts 291°
2026-04-12 08:48 28.53958 -87.48083 34234 ft 428 kts 291°
2026-04-12 08:48 28.55804 -87.54526 34235 ft 428 kts 291°
2026-04-12 08:49 28.57646 -87.60971 34232 ft 428 kts 291°
2026-04-12 08:49 28.59485 -87.67421 34232 ft 428 kts 291°
2026-04-12 08:50 28.61321 -87.73871 34229 ft 430 kts 291°
2026-04-12 08:50 28.63166 -87.80364 34232 ft 431 kts 291°
2026-04-12 08:51 28.65008 -87.86860 34239 ft 431 kts 291°
2026-04-12 08:51 28.66848 -87.93362 34233 ft 432 kts 291°
2026-04-12 08:52 28.68688 -87.99876 34230 ft 432 kts 290°
2026-04-12 08:52 28.70526 -88.06396 34231 ft 432 kts 290°
2026-04-12 08:53 28.72357 -88.12914 34226 ft 433 kts 290°
2026-04-12 08:53 28.74194 -88.19460 34227 ft 434 kts 290°
2026-04-12 08:54 28.76027 -88.26009 34227 ft 434 kts 290°
2026-04-12 08:54 28.77858 -88.32561 34230 ft 434 kts 290°
2026-04-12 08:55 28.79684 -88.39109 34228 ft 434 kts 290°
2026-04-12 08:55 28.81509 -88.45667 34228 ft 434 kts 290°
2026-04-12 08:56 28.83332 -88.52230 34224 ft 435 kts 290°
2026-04-12 08:56 28.85145 -88.58771 34224 ft 435 kts 290°
2026-04-12 08:57 28.86964 -88.65348 34227 ft 435 kts 290°
2026-04-12 08:57 28.89518 -88.71503 34227 ft 428 kts 310°
2026-04-12 08:58 28.93327 -88.76763 34222 ft 430 kts 310°
2026-04-12 08:58 28.97203 -88.81978 34232 ft 430 kts 311°
2026-04-12 08:59 29.01093 -88.87156 34214 ft 431 kts 311°
2026-04-12 08:59 29.05007 -88.92363 34224 ft 432 kts 311°
2026-04-12 09:00 29.08922 -88.97579 34223 ft 432 kts 311°
2026-04-12 09:00 29.12834 -89.02796 34226 ft 432 kts 311°
2026-04-12 09:01 29.16742 -89.08015 34227 ft 432 kts 311°
2026-04-12 09:01 29.20650 -89.13241 34225 ft 432 kts 311°
2026-04-12 09:02 29.24558 -89.18473 34225 ft 432 kts 311°
2026-04-12 09:02 29.28460 -89.23705 34219 ft 432 kts 311°
2026-04-12 09:03 29.32385 -89.28974 34224 ft 436 kts 311°
2026-04-12 09:03 29.36318 -89.34261 34224 ft 436 kts 311°
2026-04-12 09:04 29.40251 -89.39553 34221 ft 436 kts 311°
2026-04-12 09:04 29.44178 -89.44846 34222 ft 436 kts 311°
2026-04-12 09:05 29.48110 -89.50151 34224 ft 436 kts 311°
2026-04-12 09:05 29.52035 -89.55455 34224 ft 436 kts 310°
2026-04-12 09:06 29.55959 -89.60764 34229 ft 435 kts 311°
2026-04-12 09:06 29.59870 -89.66062 34225 ft 435 kts 311°
2026-04-12 09:07 29.63786 -89.71373 34224 ft 435 kts 311°
2026-04-12 09:07 29.67699 -89.76686 34224 ft 435 kts 311°
2026-04-12 09:08 29.71609 -89.82007 34224 ft 435 kts 311°
2026-04-12 09:08 29.75514 -89.87325 34224 ft 435 kts 311°
2026-04-12 09:09 29.79420 -89.92651 34227 ft 435 kts 311°
2026-04-12 09:09 29.83327 -89.97985 34239 ft 436 kts 311°
2026-04-12 09:10 29.86352 -90.02632 34249 ft 438 kts 304°
2026-04-12 09:10 29.89762 -90.08475 34226 ft 439 kts 304°
2026-04-12 09:11 29.93152 -90.14325 34234 ft 439 kts 304°
2026-04-12 09:11 29.96544 -90.20189 34238 ft 439 kts 304°
2026-04-12 09:12 29.99932 -90.26056 34238 ft 439 kts 304°
2026-04-12 09:12 30.03319 -90.31929 34238 ft 439 kts 304°
2026-04-12 09:13 30.06700 -90.37799 34237 ft 439 kts 304°
2026-04-12 09:13 30.10092 -90.43698 34239 ft 442 kts 303°
2026-04-12 09:14 30.13491 -90.49617 34237 ft 442 kts 303°
2026-04-12 09:14 30.16880 -90.55528 34237 ft 442 kts 303°
2026-04-12 09:15 30.20270 -90.61449 34236 ft 442 kts 303°
2026-04-12 09:15 30.23657 -90.67374 34234 ft 441 kts 303°
2026-04-12 09:16 30.27040 -90.73300 34231 ft 441 kts 303°
2026-04-12 09:16 30.30420 -90.79230 34228 ft 443 kts 303°
2026-04-12 09:17 30.33811 -90.85189 34229 ft 443 kts 303°
2026-04-12 09:17 30.37200 -90.91153 34229 ft 443 kts 303°
2026-04-12 09:18 30.40583 -90.97115 34245 ft 443 kts 303°
2026-04-12 09:18 30.43961 -91.03076 34236 ft 442 kts 302°
2026-04-12 09:19 30.47338 -91.09045 34239 ft 443 kts 302°
2026-04-12 09:19 30.50712 -91.15017 34242 ft 443 kts 302°
2026-04-12 09:20 30.55766 -91.23981 34238 ft 443 kts 302°
2026-04-12 09:21 30.60819 -91.32961 34221 ft 443 kts 302°
2026-04-12 09:21 30.64186 -91.38955 34219 ft 443 kts 302°
2026-04-12 09:22 30.67543 -91.44945 34220 ft 443 kts 302°
2026-04-12 09:22 30.70903 -91.50949 34220 ft 443 kts 302°
2026-04-12 09:23 30.74259 -91.56952 34220 ft 442 kts 302°
2026-04-12 09:23 30.77603 -91.62943 34219 ft 442 kts 302°
2026-04-12 09:24 30.80950 -91.68949 34214 ft 442 kts 302°
2026-04-12 09:24 30.84287 -91.74946 34214 ft 442 kts 302°
2026-04-12 09:25 30.87624 -91.80952 34213 ft 442 kts 302°
2026-04-12 09:25 30.90957 -91.86962 34205 ft 442 kts 302°
2026-04-12 09:26 30.94290 -91.92979 34225 ft 442 kts 301°
2026-04-12 09:26 30.97619 -91.98999 34218 ft 441 kts 301°
2026-04-12 09:27 31.00941 -92.05015 34221 ft 442 kts 301°
2026-04-12 09:27 31.04263 -92.11040 34219 ft 442 kts 301°
2026-04-12 09:28 31.07582 -92.17070 34219 ft 442 kts 301°
2026-04-12 09:28 31.10899 -92.23103 34217 ft 442 kts 301°
2026-04-12 09:29 31.14211 -92.29138 34215 ft 442 kts 301°
2026-04-12 09:29 31.17538 -92.35211 34205 ft 445 kts 301°
2026-04-12 09:30 31.20873 -92.41306 34203 ft 445 kts 301°
2026-04-12 09:30 31.24203 -92.47400 34206 ft 445 kts 300°
2026-04-12 09:31 31.26922 -92.53814 34215 ft 442 kts 290°
2026-04-12 09:31 31.29205 -92.60437 34210 ft 442 kts 290°
2026-04-12 09:32 31.31497 -92.67154 34202 ft 442 kts 290°
2026-04-12 09:32 31.33775 -92.73847 34209 ft 444 kts 290°
2026-04-12 09:33 31.36038 -92.80514 34206 ft 444 kts 290°
2026-04-12 09:33 31.38314 -92.87229 34201 ft 444 kts 289°
2026-04-12 09:34 31.40584 -92.93940 34194 ft 444 kts 289°
2026-04-12 09:34 31.42852 -93.00661 34195 ft 444 kts 289°
2026-04-12 09:35 31.45118 -93.07388 34196 ft 444 kts 289°
2026-04-12 09:35 31.47391 -93.14152 34197 ft 443 kts 289°
2026-04-12 09:36 31.49630 -93.20826 34180 ft 443 kts 289°
2026-04-12 09:36 31.51882 -93.27552 34185 ft 443 kts 289°
2026-04-12 09:37 31.54144 -93.34322 34190 ft 443 kts 289°
2026-04-12 09:37 31.56390 -93.41060 34186 ft 444 kts 289°
2026-04-12 09:38 31.58619 -93.47757 34182 ft 444 kts 289°
2026-04-12 09:38 31.60774 -93.54525 34172 ft 441 kts 283°
2026-04-12 09:39 31.62455 -93.61458 34179 ft 442 kts 284°
2026-04-12 09:39 31.64191 -93.68368 34172 ft 442 kts 284°
2026-04-12 09:40 31.65937 -93.75288 34182 ft 442 kts 284°
2026-04-12 09:40 31.67679 -93.82206 34169 ft 442 kts 284°
2026-04-12 09:41 31.69413 -93.89106 34169 ft 441 kts 284°
2026-04-12 09:41 31.71144 -93.96014 34175 ft 441 kts 284°
2026-04-12 09:42 31.72871 -94.02925 34164 ft 441 kts 284°
2026-04-12 09:42 31.74593 -94.09831 34172 ft 440 kts 283°
2026-04-12 09:43 31.78018 -94.23624 34171 ft 437 kts 283°
2026-04-12 09:44 31.79714 -94.30476 34166 ft 436 kts 283°
2026-04-12 09:44 31.81404 -94.37328 34161 ft 436 kts 283°
2026-04-12 09:45 31.83092 -94.44183 34156 ft 436 kts 283°
2026-04-12 09:45 31.84773 -94.51031 34157 ft 436 kts 283°
2026-04-12 09:46 31.86453 -94.57889 34175 ft 436 kts 283°
2026-04-12 09:46 31.88116 -94.64697 34162 ft 431 kts 282°
2026-04-12 09:47 31.89769 -94.71482 34159 ft 431 kts 282°
2026-04-12 09:47 31.91416 -94.78258 34166 ft 431 kts 282°
2026-04-12 09:48 31.93062 -94.85046 34165 ft 431 kts 282°
2026-04-12 09:48 31.94704 -94.91836 34166 ft 431 kts 282°
2026-04-12 09:49 31.96343 -94.98628 34172 ft 432 kts 282°
2026-04-12 09:49 31.97980 -95.05428 34162 ft 432 kts 282°
2026-04-12 09:50 31.99608 -95.12231 34156 ft 431 kts 282°
2026-04-12 09:50 32.01229 -95.19028 34152 ft 431 kts 282°
2026-04-12 09:51 32.02850 -95.25841 34154 ft 431 kts 282°
2026-04-12 09:51 32.04465 -95.32645 34151 ft 431 kts 282°
2026-04-12 09:52 32.05811 -95.38328 34144 ft 435 kts 281°
2026-04-12 09:52 32.07434 -95.45199 34137 ft 435 kts 281°
2026-04-12 09:53 32.09054 -95.52078 34134 ft 435 kts 281°
2026-04-12 09:53 32.10672 -95.58961 34129 ft 435 kts 281°
2026-04-12 09:54 32.12284 -95.65841 34122 ft 435 kts 281°
2026-04-12 09:54 32.13897 -95.72736 34027 ft 438 kts 282°
2026-04-12 09:54 32.14707 -95.76214 33061 ft 442 kts 282°
2026-04-12 09:55 32.15524 -95.79726 32123 ft 446 kts 281°
2026-04-12 09:55 32.16344 -95.83253 31346 ft 445 kts 281°
2026-04-12 09:55 32.17162 -95.86773 30670 ft 442 kts 281°
2026-04-12 09:55 32.17966 -95.90241 30345 ft 436 kts 281°
2026-04-12 09:56 32.18763 -95.93683 30140 ft 434 kts 281°
2026-04-12 09:56 32.19557 -95.97110 29526 ft 430 kts 281°
2026-04-12 09:56 32.20342 -96.00500 28803 ft 427 kts 281°
2026-04-12 09:56 32.21119 -96.03864 28161 ft 424 kts 281°
2026-04-12 09:57 32.21894 -96.07224 27524 ft 422 kts 281°
2026-04-12 09:57 32.22663 -96.10562 26899 ft 420 kts 281°
2026-04-12 09:57 32.23426 -96.13881 26264 ft 419 kts 281°
2026-04-12 09:57 32.24189 -96.17198 25645 ft 418 kts 281°
2026-04-12 09:58 32.24948 -96.20506 25019 ft 417 kts 281°
2026-04-12 09:58 32.25704 -96.23806 24400 ft 416 kts 281°
2026-04-12 09:58 32.26458 -96.27097 23772 ft 415 kts 281°
2026-04-12 09:58 32.27243 -96.30378 23040 ft 416 kts 286°
2026-04-12 09:59 32.28631 -96.33409 22349 ft 425 kts 303°
2026-04-12 09:59 32.30677 -96.35928 21864 ft 423 kts 310°
2026-04-12 09:59 32.32767 -96.38348 21322 ft 419 kts 310°
2026-04-12 09:59 32.34841 -96.40745 20756 ft 415 kts 310°
2026-04-12 10:00 32.36902 -96.43118 20216 ft 412 kts 310°
2026-04-12 10:00 32.38945 -96.45468 19671 ft 409 kts 310°
2026-04-12 10:00 32.40979 -96.47810 19148 ft 407 kts 310°
2026-04-12 10:00 32.43005 -96.50141 18607 ft 405 kts 310°
2026-04-12 10:01 32.45020 -96.52462 18009 ft 402 kts 310°
2026-04-12 10:01 32.46998 -96.54740 17454 ft 392 kts 309°
2026-04-12 10:01 32.48934 -96.56968 16925 ft 384 kts 310°
2026-04-12 10:01 32.50836 -96.59145 16450 ft 375 kts 309°
2026-04-12 10:02 32.52698 -96.61279 15950 ft 368 kts 309°
2026-04-12 10:02 32.54516 -96.63365 15480 ft 361 kts 309°
2026-04-12 10:02 32.56302 -96.65412 15041 ft 354 kts 309°
2026-04-12 10:02 32.58070 -96.67403 14621 ft 347 kts 310°
2026-04-12 10:03 32.59802 -96.69355 14244 ft 339 kts 309°
2026-04-12 10:03 32.61489 -96.71259 13926 ft 330 kts 309°
2026-04-12 10:03 32.63132 -96.73114 13538 ft 323 kts 309°
2026-04-12 10:03 32.64740 -96.74929 13077 ft 315 kts 309°
2026-04-12 10:04 32.66312 -96.76709 12568 ft 310 kts 309°
2026-04-12 10:04 32.67859 -96.78464 12068 ft 305 kts 309°
2026-04-12 10:04 32.69379 -96.80188 11572 ft 301 kts 309°
2026-04-12 10:04 32.70880 -96.81891 11091 ft 297 kts 309°
2026-04-12 10:05 32.72371 -96.83582 10599 ft 295 kts 310°
2026-04-12 10:05 32.73848 -96.85259 10134 ft 292 kts 309°
2026-04-12 10:05 32.75307 -96.86917 9628 ft 289 kts 309°
2026-04-12 10:05 32.76754 -96.88565 9100 ft 286 kts 308°
2026-04-12 10:06 32.78194 -96.90200 8597 ft 287 kts 311°
2026-04-12 10:06 32.79908 -96.91411 8063 ft 300 kts 340°
2026-04-12 10:06 32.82032 -96.91610 7518 ft 306 kts
2026-04-12 10:06 32.84186 -96.91533 6996 ft 313 kts 358°
2026-04-12 10:07 32.86386 -96.91501 6472 ft 320 kts 359°
2026-04-12 10:07 32.88635 -96.91466 5892 ft 328 kts 359°
2026-04-12 10:07 32.90939 -96.91440 5340 ft 334 kts 359°
2026-04-12 10:07 32.93270 -96.91419 4758 ft 334 kts 358°
2026-04-12 10:08 32.95584 -96.91406 4178 ft 331 kts 360°
2026-04-12 10:08 32.97849 -96.91386 3615 ft 328 kts 360°
2026-04-12 10:08 33.00120 -96.91369 3153 ft 323 kts
2026-04-12 10:08 33.02366 -96.91354 3063 ft 313 kts
2026-04-12 10:09 33.04474 -96.91344 3009 ft 301 kts
2026-04-12 10:09 33.06531 -96.91327 3017 ft 292 kts
2026-04-12 10:09 33.08556 -96.91456 2911 ft 285 kts 346°
2026-04-12 10:09 33.10198 -96.92514 2846 ft 261 kts 306°
2026-04-12 10:10 33.10980 -96.94279 2707 ft 231 kts 269°
2026-04-12 10:10 33.10721 -96.96034 2332 ft 208 kts 231°
2026-04-12 10:10 33.09864 -96.97380 2132 ft 202 kts 223°
2026-04-12 10:10 33.08992 -96.98623 2125 ft 189 kts 223°
2026-04-12 10:11 33.08170 -96.99820 2037 ft 187 kts 223°
2026-04-12 10:11 33.07337 -97.01031 1984 ft 190 kts 223°
2026-04-12 10:11 33.06381 -97.02035 1954 ft 173 kts 198°
2026-04-12 10:11 33.05311 -97.02432 1985 ft 156 kts 185°
2026-04-12 10:12 33.04252 -97.02503 1972 ft 151 kts 181°
2026-04-12 10:12 33.03187 -97.02534 1898 ft 152 kts 179°
2026-04-12 10:12 33.02150 -97.02541 1980 ft 149 kts 176°
2026-04-12 10:12 33.01122 -97.02541 1983 ft 145 kts 177°
2026-04-12 10:13 33.00138 -97.02546 1956 ft 139 kts 178°
2026-04-12 10:13 32.99202 -97.02556 1915 ft 127 kts 178°
2026-04-12 10:13 32.98341 -97.02561 1848 ft 122 kts 178°
2026-04-12 10:13 32.97502 -97.02565 1709 ft 120 kts 178°
2026-04-12 10:14 32.96657 -97.02572 1576 ft 123 kts 178°
2026-04-12 10:14 32.95792 -97.02566 1389 ft 126 kts 176°
2026-04-12 10:14 32.94910 -97.02592 1292 ft 127 kts 177°
2026-04-12 10:14 32.94027 -97.02568 1130 ft 129 kts 179°
2026-04-12 10:15 32.93111 -97.02589 965 ft 134 kts 178°
2026-04-12 10:15 32.92178 -97.02589 754 ft 131 kts 179°
2026-04-12 10:15 32.91277 -97.02599 588 ft 125 kts 178°
2026-04-12 10:15 32.90561 -97.02603 579 ft 71 kts 180°
2026-04-12 10:16 32.90211 -97.02604 577 ft 43 kts 180°
2026-04-12 10:16 32.89969 -97.02654 573 ft 34 kts 202°
2026-04-12 10:16 32.89791 -97.02774 578 ft 23 kts 210°
2026-04-12 10:16 32.89650 -97.02802 577 ft 19 kts 179°
2026-04-12 10:17 32.89529 -97.02804 578 ft 16 kts 180°
2026-04-12 10:17 32.89420 -97.02803 576 ft 14 kts 180°
2026-04-12 10:17 32.89387 -97.02835 574 ft 1 kts 258°
2026-04-12 10:17 32.89391 -97.02861 575 ft 8 kts 281°
2026-04-12 10:18 32.89394 -97.02973 578 ft 19 kts 270°
2026-04-12 10:18 32.89395 -97.03145 578 ft 22 kts 270°
2026-04-12 10:18 32.89396 -97.03276 585 ft 9 kts 277°
2026-04-12 10:18 32.89425 -97.03313 587 ft 6 kts 334°
2026-04-12 10:19 32.89492 -97.03317 588 ft 14 kts
2026-04-12 10:19 32.89617 -97.03316 588 ft 22 kts
2026-04-12 10:19 32.89797 -97.03315 588 ft 28 kts
2026-04-12 10:19 32.89934 -97.03315 588 ft 6 kts 352°
2026-04-12 10:20 32.89945 -97.03323 588 ft 2 kts 308°
2026-04-12 10:20 32.89951 -97.03385 589 ft 13 kts 270°
2026-04-12 10:20 32.89962 -97.03492 589 ft 12 kts 303°
2026-04-12 10:20 32.90024 -97.03557 589 ft 11 kts 321°
2026-04-12 10:21 32.90044 -97.03573 589 ft 1 kts 326°
2026-04-12 10:21 32.90051 -97.03591 589 ft 5 kts 280°
2026-04-12 10:21 32.90032 -97.03630 589 ft 5 kts 212°
2026-04-12 10:21 32.90006 -97.03644 589 ft 3 kts 203°
2026-04-12 10:22 32.90005 -97.03645 589 ft 0 kts 203°